STARLINK-32235, 60739

Orbit data source: Space-Track

STARLINK-32235, 60739 is a payload satellite owned by SpaceX/Seattle (US) in LEO that was launched on Wed, 28 Aug 2024 UTC via an FALCON 9 launch vehicle from the Air Force Eastern Test Range (AFETR). Payload-class satellites include a variety of spacecraft equipped with specific instruments for various scientific and technological missions. These include communications satellites like Starlink; space stations such as the ISS; scientific satellites like the Hubble; Earth observation satellites from companies like Planet Labs, Umbra, and HawkEye 360; GPS; miniature CubeSats for education and research; and military/defense satellites.

Loading next visibility...
Identifier
60739, 2024-152V
Orbit
LEO
Country
Flag of USUS
Related business
Manufacturer
SpaceX/Seattle
Mission
Operational Commercial Communications
Bus & Motor
STARLINK V2M, Unknown motor
Mass
730 kg wet, ~700 kg dry
Launch date (UTC)
2024-08-28 (1 year ago)
Launch vehicle
FALCON 9
Launch site
Air Force Eastern Test Range (AFETR)
Object type
Payload
Rocket body
Debris
Shape & HBR
Box + 2 Pan, 17.7 m
Radar Cross Section
33.884 m², Large (>1 m²)

Expand to show TLE details & history
Last TLE update: 20 hours ago

TLE from 20 hours ago
0 STARLINK-32235
1 60739U 24152V   25340.71624304  .00000899  00000-0  42465-4 0  9991
2 60739  53.1616 340.4618 0001369  87.5981 272.5176 15.30197350 72566
Epoch: 2025-12-06T17:11Z
TLE epoch observation values (Epoch: 2025-12-06T17:11:23.398Z)
Latitude
-0.00007°
Longitude
6.87427°
Altitude
476.082 km
Speed
7.629 km/s
True Right ascension
22h 41m 50s
True Declination
0° 00' 00"
Sunlit
Object was in daylight at epoch
Visualization orbit readout
Latitude
Unknown
Longitude
Unknown
Altitude
Unknown
Speed
Unknown
Apparent Right ascension
Unknown
Apparent Declination
Unknown
Sunlit
N/A
Visualization observer readout
Local Sidereal Time
11:43:22
Azimuth
Unknown
Elevation
Unknown
Doppler factor
Unknown
Orbital elements
Apogee altitude
476.417 km
Perigee altitude
474.541 km
Semi-major axis
6,853.616 km
Eccentricity
0.00014
Inclination
53.1616°
RAAN
340.4618°
Arg. of periapsis
87.5981°
True anomaly
272.50193°
Mean anomaly
272.5176°
Eccentric anomaly
272.50976°
Mean motion
3.82528 °/min
Orbital period
94.11 mins
BSTAR
0.000042465
Loading maneuver chart data...
Computing Atmospheric mass density...
Loading historical data...
Loading historical data...
Loading historical data...
Loading historical data...
Loading historical data...
Loading historical data...
Loading historical data...

Documentation

Showing up to 5 results
|